Location: Stoke Bliss
(52.2667°N, 2.5167°W)
Time: 01:55:53
(UTC+00:00)

Nadezhda 3 Rocket - Pass Details

Date: 03 March 2021
Orbit: 957 x 999 km, 82.9° (Epoch: 11 April)

Event Time Altitude Azimuth Distance (km) Brightness Sun altitude
Rises 19:10:28 0° 348° (NNW) 3,724 7.3 -12.6°
Reaches altitude 10° 19:13:00 10° 347° (NNW) 2,775 6.6 -13.0°
Maximum altitude 19:19:20 72° 264° (W) 1,053 4.4 -13.9°
Drops below altitude 10° 19:25:40 10° 182° (S) 2,763 6.3 -14.9°
Sets 19:28:11 0° 180° (S) 3,707 6.9 -15.3°
